date,batt_volt,AirTemp_C,Solar_kW,RH,Manual_BP,StationID,WS_ms,PTemp,WS_15min_max,Prog_Sig,Solar_Raw,Bar_mbar,Solar_MJ,Max_WS_2min,Pressure_Raw,Rain_mm,WD_15min_ave,Max_AirTemp_1min,WindDir,WS_15min_med,WS_15min_ave,Elevation_Correction
2018-06-01T00:07:09Z,12.92686,11.4044,0.004336355,89.16192,0,1156,3.1752,15.67672,6.0368,43690,0.3035448,1014.213,2.168177e-05,4.782,1012.412,0,285.505187745,11.51,308.9032,4.3708,4.35691666667,1.80078
2018-06-01T00:22:13Z,12.93261,11.16829,0.0,89.80695,0,1156,2.156,15.21357,4.3708,43690,0.0,1014.213,0.0,4.371,1012.412,0,295.350431589,11.24,288.6884,3.0772,3.0535408284,1.80078
2018-06-01T00:37:11Z,12.95467,11.10058,0.0,89.46834,0,1156,2.3912,14.7798,4.9784,43690,0.0,1014.213,0.0,3.391,1012.412,0,294.036398545,11.24,313.7897,3.2634,3.32546666667,1.80078
2018-06-01T00:52:14Z,12.9657,10.86353,0.0,90.17948,0,1156,2.7244,14.39572,4.018,43690,0.0,1014.213,0.0,3.567,1012.412,0,299.339350107,10.86,281.5716,2.9008,2.88572307692,1.80078
2018-06-01T01:07:12Z,12.9657,11.23603,0.0,88.79106,0,1156,3.3712,14.1585,4.9,43690,0.0,1013.294,0.0,4.9,1011.493,0,290.654865523,11.24,278.7585,3.3516,3.37936666667,1.80078
2018-06-01T01:22:15Z,12.96104,11.6087,0.0,85.60812,0,1156,3.4692,14.03876,5.1744,43690,0.0,1013.294,0.0,4.175,1011.493,0,289.999675859,11.71,282.2216,3.6064,3.70150059172,1.80078
2018-06-01T01:37:14Z,12.96033,11.27319,0.0,86.73093,0,1156,3.8024,13.99131,4.4884,43690,0.0,1013.294,0.0,4.018,1011.493,0,286.508442667,11.48,281.6859,3.626,3.5896,1.80078
2018-06-01T01:52:11Z,12.96135,11.23982,0.0,86.69791,0,1156,2.5872,13.91902,4.4688,43690,0.0,1013.294,0.0,3.606,1011.493,0,289.778404813,11.34,299.1935,3.5672,3.44143333333,1.80078
2018-06-01T02:07:15Z,12.96128,11.27631,0.0,86.16047,0,1156,3.5476,13.84898,3.8612,43690,0.0,1013.823,0.0,3.861,1012.023,0,290.627742622,11.48,282.7371,2.9988,3.01445680473,1.80078
2018-06-01T02:22:12Z,12.96162,11.38025,0.0,84.60638,0,1156,3.136,13.77668,3.7632,43690,0.0,1013.823,0.0,3.763,1012.023,0,295.461416496,11.51,294.5812,2.7832,2.83033333333,1.80078
2018-06-01T02:37:15Z,12.9568,11.28131,0.0,85.05111,0,1156,4.0376,13.75409,4.1748,43690,0.0,1013.823,0.0,3.861,1012.023,0,292.103871898,11.35,286.6124,3.0968,3.10955739645,1.80078
2018-06-01T02:52:18Z,12.96234,11.00885,0.0,86.77601,0,1156,3.6652,13.6818,4.4688,43690,0.0,1013.823,0.0,4.136,1012.023,0,284.536181528,11.08,291.0769,3.6652,3.65592189349,1.80078
2018-06-01T03:07:15Z,12.96326,11.11453,0.0,86.57967,0,1156,3.8416,13.58917,4.116,43690,0.0,1013.832,0.0,4.116,1012.031,0,284.777943658,11.22,286.218,3.6554,3.6078,1.80078
2018-06-01T03:22:16Z,12.969,11.04724,0.0,87.1563,0,1156,3.4496,13.54172,4.3512,43690,0.0,1013.832,0.0,3.861,1012.031,0,285.734732705,11.08,283.3586,3.4692,3.42257751479,1.80078
2018-06-01T03:37:18Z,12.96423,10.50695,0.0,88.17546,0,1156,3.7828,13.46943,4.2532,43690,0.0,1013.832,0.0,3.881,1012.031,0,281.01047395,10.64,278.9667,3.0184,3.12057514793,1.80078
2018-06-01T03:52:15Z,12.96457,10.81293,0.0,88.00799,0,1156,3.2732,13.3994,4.5864,43690,0.0,1013.832,0.0,3.959,1012.031,0,282.295174975,10.95,284.9376,3.9592,3.89888333333,1.80078
2018-06-01T04:07:17Z,12.96457,11.11776,0.0,87.05941,0,1156,3.3516,13.3768,4.7236,43690,0.0,1012.649,0.0,4.194,1010.848,0,284.046921103,11.19,292.6097,3.7436,3.75912512426,1.80078
2018-06-01T04:22:19Z,12.96457,11.18562,0.0,85.9417,0,1156,3.4496,13.3768,4.5472,43690,0.0,1012.649,0.0,3.763,1010.848,0,285.456985073,11.35,287.2228,3.4692,3.44936804734,1.80078
2018-06-01T04:37:16Z,12.95878,11.01624,0.0,86.41596,0,1156,6.0368,13.42424,6.0368,43690,0.0,1012.649,0.0,6.037,1010.848,0,288.197760833,11.19,274.9325,4.8608,4.74495,1.80078
2018-06-01T04:52:18Z,12.96457,10.74514,0.0,87.33042,0,1156,5.7232,13.42424,7.2912,43690,0.0,1012.649,0.0,6.213,1010.848,0,275.352222202,10.85,272.5508,6.0564,6.06266267456,1.80078
2018-06-01T05:07:16Z,12.95906,10.40625,0.0,88.38031,0,1156,4.3708,13.3768,5.7232,43690,0.0,1012.886,0.0,4.92,1011.085,0,280.905562663,10.51,280.3427,4.6648,4.72966666667,1.80078
2018-06-01T05:22:19Z,12.96455,10.16925,0.0,88.48217,0,1156,5.5272,13.25932,6.2132,43690,0.0,1012.886,0.0,6.213,1011.085,0,284.158924769,10.41,277.2889,4.4688,4.54893964497,1.80078
2018-06-01T05:37:21Z,12.97009,10.44036,0.0,88.24523,0,1156,4.0572,13.11699,6.272,43690,0.0,1012.886,0.0,5.606,1011.085,0,279.230286856,10.41,290.8065,4.8412,4.82832662722,1.80078
2018-06-01T05:52:18Z,12.97561,10.91462,0.0,85.23032,0,1156,2.8028,13.02436,5.4684,43690,0.0,1012.886,0.0,3.842,1011.085,0,290.452563099,10.85,299.8498,3.4888,3.50315,1.80078
2018-06-01T06:07:19Z,12.97009,10.91462,0.0,83.73981,0,1156,3.724,13.00177,4.7824,43690,0.0,1012.736,0.0,4.41,1010.935,0,294.424863685,11.02,291.0229,3.5084,3.47801420118,1.80078
2018-06-01T06:22:16Z,12.97009,10.81299,0.0,84.48507,0,1156,3.4692,12.97691,4.2532,43690,0.0,1012.736,0.0,4.253,1010.935,0,293.518173508,10.81,289.8203,3.4594,3.42883333333,1.80078
2018-06-01T06:37:19Z,12.97561,10.30486,0.0,85.80621,0,1156,4.606,12.85943,5.2528,43690,0.0,1012.736,0.0,5.116,1010.935,0,280.812117492,10.41,284.4328,3.7828,3.93820828402,1.80078
2018-06-01T06:52:21Z,12.97561,10.40649,0.0,84.68832,0,1156,4.3708,12.78939,5.292,43690,0.0,1012.736,0.0,4.802,1010.935,0,281.604025681,10.51,284.4088,4.2924,4.29205207101,1.80078
2018-06-01T07:07:18Z,12.97561,10.27099,0.0,85.19645,0,1156,4.5668,12.69677,5.1156,43690,0.0,1011.354,0.0,4.959,1009.553,0,280.782637826,10.41,289.6039,4.0572,4.03281666667,1.80078
2018-06-01T07:22:20Z,12.97561,10.54199,0.0,84.11244,0,1156,4.3904,12.71936,6.1152,43690,0.0,1011.354,0.0,5.684,1009.553,0,283.994012377,10.64,283.0378,4.3316,4.3726556213,1.80078
2018-06-01T07:37:22Z,12.97561,10.40649,0.0,84.28182,0,1156,4.0572,12.69677,5.586,43690,0.0,1011.354,0.0,4.547,1009.553,0,282.655829394,10.51,289.5077,4.1356,4.22327810651,1.80078
2018-06-01T07:52:18Z,12.98112,9.728981,0.0,86.78859,0,1156,2.2932,12.62673,4.508,43690,0.0,1011.354,0.0,3.077,1009.553,0,282.615642146,9.86,274.0907,3.5476,3.49171666667,1.80078
2018-06-01T08:07:21Z,12.98112,9.695106,0.0,87.3306,0,1156,2.8224,12.48665,4.508,43690,0.0,1011.028,0.0,3.332,1009.228,0,283.064525631,9.86,275.63,3.038,3.00367100592,1.80078
2018-06-01T08:22:23Z,12.98112,9.661232,0.002892057,88.2791,0,1156,2.254,12.27881,3.0772,43690,0.202444,1011.028,1.446028e-05,2.332,1009.228,0,278.418378848,9.729999,288.3292,2.4892,2.47064378698,1.80078
2018-06-01T08:37:19Z,12.98112,9.864483,0.006748133,86.92409,0,1156,2.1364,12.11614,2.7244,43690,0.4723692,1011.028,3.374066e-05,2.548,1009.228,0,281.393282366,10.03,282.3644,1.96,1.95755,1.80078
2018-06-01T08:52:22Z,12.97561,9.728981,0.01446028,87.29672,0,1156,2.3128,12.07095,2.9204,43690,1.01222,1011.028,7.230142e-05,2.548,1009.228,0,282.104081227,9.929999,296.7472,2.2932,2.29702721893,1.80078
2018-06-01T09:07:23Z,12.97561,10.13549,0.02361846,86.92409,0,1156,1.6464,12.11614,2.6656,43690,1.653292,1011.354,0.0001180923,2.234,1009.553,0,291.938836437,10.27,295.5446,2.156,2.12236686391,1.80078
2018-06-01T09:22:20Z,12.97561,11.25337,0.06217922,80.75878,0,1156,2.6068,12.25621,3.8024,43690,4.352545,1011.354,0.0003108961,3.646,1009.553,0,300.35033309,11.35,286.3088,2.4108,2.38466666667,1.80078
2018-06-01T09:37:24Z,12.96457,11.45662,0.1055601,80.38615,0,1156,2.7048,12.90687,3.43,43690,7.389205,1011.354,0.0005278004,2.96,1009.553,0,296.086701439,11.52,298.6232,2.4108,2.40998816568,1.80078
2018-06-01T09:52:21Z,12.94802,11.59213,0.1354447,80.08127,0,1156,2.5284,13.77668,3.136,43690,9.481126,1011.354,0.0006772233,2.783,1009.553,0,294.603766906,11.66,290.8305,2.352,2.34313333333,1.80078
2018-06-01T10:07:24Z,12.92225,12.01775,0.1806978,78.56848,0,1156,2.1756,14.66005,2.9008,43690,12.64885,1010.401,0.0009034891,2.548,1008.6,0,294.480872617,12.02,302.7944,2.156,2.12886153846,1.80078
2018-06-01T10:22:22Z,12.91057,12.18432,0.2192405,78.15794,0,1156,3.1752,15.55471,3.7436,43690,15.34684,1010.401,0.001096203,3.43,1008.6,0,292.740391145,12.18,291.7425,2.4304,2.43541666667,1.80078
2018-06-01T10:37:25Z,12.89953,12.6922,0.2722233,76.7017,0,1156,4.2532,16.33868,5.0764,43690,19.05563,1010.401,0.001361116,4.626,1008.6,0,297.892051932,12.59,299.4119,3.332,3.41886627219,1.80078
2018-06-01T10:52:22Z,12.87911,13.1162,0.3227763,74.81632,0,1156,3.822,17.08649,4.8216,43690,22.59434,1010.401,0.001613882,4.449,1008.6,0,300.73046667,13.18,294.5854,3.3124,3.32336666667,1.80078
2018-06-01T11:07:25Z,12.8676,13.79152,0.386796,72.85044,0,1156,4.508,17.9179,5.2724,43690,27.07572,1010.687,0.00193398,4.724,1008.886,0,301.166168783,13.79,292.1001,3.4496,3.4030343949,1.80078
2018-06-01T11:22:27Z,12.86208,13.9946,0.4301444,73.42587,0,1156,2.9008,18.76511,5.1548,43690,30.11011,1010.687,0.002150722,4.273,1008.886,0,295.534360005,14.06,305.2952,3.7044,3.65186272189,1.80078
2018-06-01T11:37:24Z,12.85628,14.39716,0.4778312,73.89484,0,1156,2.9792,19.52196,4.7432,43690,33.44818,1010.687,0.002389156,3.979,1008.886,0,288.803406926,14.43,276.5786,3.43,3.41693333333,1.80078
2018-06-01T11:52:26Z,12.8376,14.11929,0.5235502,74.52825,0,1156,4.6648,20.23588,5.7624,43690,36.64851,1010.687,0.002617751,5.272,1008.886,0,285.256570549,14.15,293.1715,4.116,4.07946745562,1.80078
2018-06-01T12:07:24Z,12.83573,14.61953,0.5725358,75.4995,0,1156,3.3124,20.71711,5.5272,43690,40.07751,1010.687,0.002862679,4.155,1008.887,0,286.021647968,14.59,273.9819,4.0572,4.04985,1.80078
2018-06-01T12:22:27Z,12.83017,14.14554,0.615867,75.93912,0,1156,4.116,21.25933,4.6452,43690,43.11069,1010.687,0.003079335,4.41,1008.887,0,282.539701345,14.08,286.0424,3.7828,3.70706745562,1.80078
2018-06-01T12:37:29Z,12.82466,14.8562,0.6649822,74.75469,0,1156,4.4688,21.75184,5.0764,43690,46.54875,1010.687,0.003324911,4.567,1008.887,0,283.329679997,14.86,291.1602,3.9396,3.89378934911,1.80078
2018-06-01T12:52:26Z,12.81761,15.08994,0.7078377,73.56605,0,1156,5.1548,22.22403,5.7428,43690,49.54863,1010.687,0.003539188,4.782,1008.887,0,285.893093208,15.23,302.3155,4.0572,4.00061666667,1.80078
2018-06-01T13:07:29Z,12.80973,15.00915,0.748767,74.6311,0,1156,3.822,22.67136,6.0172,43690,52.41369,1010.401,0.003743835,4.273,1008.601,0,284.946622155,15.11,320.4266,4.1552,4.21423195266,1.80078
2018-06-01T13:22:26Z,12.80931,15.81874,0.7891889,73.07181,0,1156,4.7628,22.86791,5.9976,43690,55.24322,1010.401,0.003945944,4.763,1008.601,0,284.141674444,15.92,272.4472,4.4884,4.5031,1.80078
2018-06-01T13:37:29Z,12.8093,14.76997,0.82427,75.40597,0,1156,4.802,23.06672,5.9976,43690,57.6989,1010.401,0.00412135,5.762,1008.601,0,279.829493248,14.97,279.5085,4.8608,4.8330816568,1.80078
2018-06-01T13:52:30Z,12.80379,15.34507,0.8618011,73.44386,0,1156,4.2924,23.26554,5.4488,43690,60.32608,1010.401,0.004309006,5.135,1008.601,0,276.784605813,15.72,292.9351,4.4296,4.45673846154,1.80078
2018-06-01T14:07:27Z,12.80379,14.56699,0.8877616,77.36808,0,1156,5.0372,23.38076,5.3312,43690,62.14331,1009.934,0.004438808,5.331,1008.133,0,283.728069984,14.74,277.1786,4.459,4.41338333333,1.80078
2018-06-01T14:22:31Z,12.80379,14.87146,0.8978556,76.11638,0,1156,5.3508,23.29491,6.0564,43690,62.8499,1009.934,0.004489278,5.782,1008.133,0,283.417506095,15.01,275.8096,4.9392,4.89860828402,1.80078
2018-06-01T14:37:28Z,12.79828,15.41273,0.9205341,73.9513,0,1156,5.1156,23.20906,6.8208,43690,64.43738,1009.934,0.00460267,5.939,1008.133,0,280.608745237,15.45,270.7656,5.4292,5.42558332738,1.80078
2018-06-01T14:52:31Z,12.79828,15.3789,0.9455478,76.72532,0,1156,5.2136,23.29491,6.8992,43690,66.18835,1009.934,0.004727739,6.625,1008.133,0,281.528591136,15.51,284.4324,5.1744,5.24630531953,1.80078
2018-06-01T15:07:33Z,12.79277,14.90529,0.9542382,78.04467,0,1156,6.6248,23.32428,7.643999,43690,66.79668,1009.284,0.004771191,6.801,1007.483,0,284.320911803,14.94,306.5298,6.0368,5.98704611834,1.80078
2018-06-01T15:22:31Z,12.79277,16.25847,0.9590202,73.24088,0,1156,5.8212,23.29491,7.742,43690,67.13141,1009.284,0.0047951,6.468,1007.483,0,279.86134891,16.53,285.9215,6.4484,6.507899875,1.80078
2018-06-01T15:37:33Z,12.79277,15.17593,0.9397494,77.36808,0,1156,6.3112,23.32428,8.231999,43690,65.78246,1009.284,0.004698747,7.605001,1007.483,0,283.949733326,15.48,283.6397,6.0368,6.12505792899,1.80078
2018-06-01T15:52:31Z,12.79277,15.04061,0.9436031,74.59406,0,1156,6.7228,23.15258,8.3496,43690,66.05222,1009.284,0.004718016,6.762,1007.483,0,283.089310443,15.38,289.092,6.2916,6.22194992262,1.80078
2018-06-01T16:07:33Z,12.79277,15.00678,0.9657147,77.87553,0,1156,5.1156,23.01024,7.271599,43690,67.60003,1009.284,0.004828574,6.429,1007.483,0,288.582067279,15.01,308.1631,5.5272,5.48846386391,1.80078
2018-06-01T16:22:30Z,12.79828,15.10827,0.9749034,75.87958,0,1156,5.8408,22.95376,6.37,43690,68.24324,1009.284,0.004874517,6.194,1007.483,0,285.424479157,15.41,285.7534,5.5272,5.46315,1.80078
2018-06-01T16:37:34Z,12.80379,14.90529,0.9561436,80.17594,0,1156,6.0564,22.89728,6.8208,43690,66.93005,1009.284,0.004780718,6.782001,1007.483,0,283.163024254,15.35,283.8559,5.9192,5.84300354438,1.80078
2018-06-01T16:52:35Z,12.80379,15.17593,0.9518476,79.97295,0,1156,4.802,22.8408,7.1344,43690,66.62933,1009.284,0.004759238,5.645,1007.483,0,287.820486053,15.18,290.9175,5.5076,5.47153136095,1.80078
2018-06-01T17:07:32Z,12.80379,15.58188,0.933044,77.67254,0,1156,5.6252,22.89728,6.7228,43690,65.31308,1008.716,0.00466522,6.723001,1006.915,0,289.674859285,15.72,289.1161,5.2038,5.15305,1.80078
2018-06-01T17:22:35Z,12.79828,15.44656,0.9354786,78.68743,0,1156,5.1548,23.0961,6.958,43690,65.4835,1008.716,0.004677393,5.802,1006.915,0,289.481793633,15.58,293.3434,5.194,5.2235739645,1.80078
2018-06-01T17:37:32Z,12.79277,15.98784,0.9330439,77.67254,0,1156,4.9,23.43724,5.4488,43690,65.31307,1008.716,0.004665219,4.959,1006.915,0,281.850937913,15.89,283.8079,4.4492,4.44815,1.80078
2018-06-01T17:52:36Z,12.78175,16.63059,0.9194061,75.4398,0,1156,2.6656,23.9275,5.6056,43690,64.35843,1008.716,0.00459703,4.018,1006.915,0,282.169011695,16.7,302.6387,3.7828,3.78546745562,1.80078
2018-06-01T18:07:33Z,12.77624,16.22464,0.8784819,76.08256,0,1156,3.8416,24.27542,4.7236,43690,61.49374,1007.823,0.00439241,3.979,1006.022,0,284.548759278,16.19,275.4012,3.7436,3.75701666667,1.80078
2018-06-01T18:22:36Z,12.78175,16.19081,0.8443054,80.27742,0,1156,5.488,24.42228,6.468,43690,59.10138,1007.823,0.004221527,6.468,1006.022,0,287.963062014,16.22,301.702,4.6452,4.64369230769,1.80078
2018-06-01T18:37:38Z,12.78726,16.52911,0.8120542,82.40868,0,1156,5.5076,24.3929,6.9188,43690,56.8438,1007.823,0.004060271,5.351,1006.022,0,290.102751652,16.26,290.1729,5.4292,5.34128993491,1.80078
2018-06-01T18:52:36Z,12.78726,15.64954,0.2719684,86.23142,0,1156,4.4492,24.21894,6.487599,43690,19.03779,1007.823,0.001359842,5.253,1006.022,0,292.103325788,15.78,289.1641,4.802,4.81121666071,1.80078
2018-06-01T19:07:38Z,12.79277,17.40867,0.3701658,84.77674,0,1156,4.7824,23.81227,6.9188,43690,25.91161,1007.335,0.001850829,5.782,1005.535,0,294.288896376,17.37,321.3975,4.2728,4.33438343195,1.80078
2018-06-01T19:22:35Z,12.78726,18.3559,0.5078348,77.43574,0,1156,7.5068,23.98624,8.8004,43690,35.54844,1007.335,0.002539174,7.801001,1005.535,0,287.095159071,18.76,279.4604,6.5268,6.48141652976,1.80078
2018-06-01T19:37:38Z,12.78726,17.81462,0.252714,84.91206,0,1156,5.8212,24.24831,9.505999,43690,17.68998,1007.335,0.00126357,8.57,1005.535,0,284.834479367,17.92,288.8038,6.4288,6.4822649645,1.80078
2018-06-01T19:52:40Z,12.78726,17.30718,0.2488631,86.50205,0,1156,4.998,23.9275,8.5456,43690,17.42042,1007.335,0.001244316,7.428001,1005.535,0,289.856204706,17.37,287.819,6.2916,6.29484724852,1.80078
2018-06-01T20:07:36Z,12.79277,16.66443,0.2276871,87.04332,0,1156,2.7048,23.63832,9.212,43690,15.9381,1007.417,0.001138436,6.096,1005.616,0,288.591549697,16.7,294.9527,5.2234,5.28138331548,1.80078
2018-06-01T20:22:40Z,12.79828,17.64548,0.2248088,87.11098,0,1156,5.6448,23.35139,7.643999,43690,15.73661,1007.417,0.001124044,7.507001,1005.616,0,289.02062046,17.75,299.3962,5.3508,5.43337511243,1.80078
2018-06-01T20:37:36Z,12.79828,16.73208,0.1978657,88.02438,0,1156,7.35,23.15258,7.938,43690,13.8506,1007.417,0.0009893285,6.292,1005.616,0,295.815096756,16.97,292.3106,6.027,6.07191660714,1.80078
2018-06-01T20:52:41Z,12.80379,16.19081,0.220027,89.3099,0,1156,5.684,22.78432,8.3496,43690,15.40189,1007.417,0.001100135,7.664001,1005.616,0,294.663246486,16.19,297.6188,5.6448,5.7062674142,1.80078
2018-06-01T21:07:37Z,12.80379,16.19081,0.1853767,89.20842,0,1156,6.2132,22.4748,8.036,43690,12.97637,1006.442,0.0009268834,7.664001,1004.642,0,293.456108429,16.33,299.228,6.3504,6.32928325,1.80078
2018-06-01T21:22:40Z,12.80436,16.42786,0.1767178,89.95306,0,1156,7.859599,22.19465,8.447599,43690,12.37025,1006.442,0.0008835892,8.45,1004.642,0,292.584642719,16.46,283.4248,6.958,6.83993594083,1.80078
2018-06-01T21:37:38Z,12.8107,16.13239,0.2441316,89.12158,0,1156,7.1736,21.97325,9.2708,43690,17.08921,1006.442,0.001220658,8.08,1004.642,0,292.437042316,16.27,309.9915,7.1834,7.09029984524,1.80078
2018-06-01T21:52:41Z,12.81258,15.62733,0.1892381,89.05786,0,1156,5.782,21.80832,8.9572,43690,13.24667,1006.442,0.0009461906,7.468001,1004.642,0,291.207012155,15.86,295.3506,6.1348,6.15753128402,1.80078
2018-06-01T22:07:39Z,12.8128,15.73416,0.1622729,87.84813,0,1156,5.0568,21.69762,7.84,43690,11.3591,1005.926,0.0008113645,6.115,1004.125,0,295.929442466,15.9,284.543,5.0568,5.00546664286,1.80078
2018-06-01T22:22:42Z,12.81912,15.05887,0.09678592,91.84374,0,1156,7.016799,21.45136,8.231999,43690,6.775014,1005.926,0.0004839296,8.229999,1004.125,0,293.677452655,15.19,298.5825,5.0176,5.05100116568,1.80078
2018-06-01T22:37:39Z,12.82465,15.09304,0.08234026,94.75462,0,1156,6.5464,20.90688,7.5068,43690,5.763818,1005.926,0.0004117013,6.978,1004.125,0,293.680335546,15.23,291.8087,5.5958,5.573866625,1.80078
2018-06-01T22:52:43Z,12.83567,15.09304,0.05730111,95.76985,0,1156,6.5072,20.4234,7.938,43690,4.011078,1005.926,0.0002865056,7.938,1004.125,0,293.379438353,15.13,298.4402,6.0956,5.93914788166,1.80078
2018-06-01T23:07:41Z,12.83567,14.95768,0.03129936,96.3113,0,1156,6.9972,20.04837,8.5456,43690,2.190955,1005.476,0.0001564968,7.076,1003.675,0,292.629187665,15.09,293.6828,6.6346,6.63973318452,1.80078
2018-06-01T23:22:43Z,12.84219,14.65807,0.007224308,96.65848,0,1156,8.0948,19.73207,8.8396,43690,0.5057016,1005.476,3.612154e-05,6.801,1003.675,0,290.628398351,14.79,297.1936,6.2328,6.17898689941,1.80078
2018-06-01T23:37:40Z,12.85436,13.84985,0.003371657,96.76726,0,1156,4.6844,19.39093,6.781599,43690,0.236016,1005.476,1.685828e-05,6.292,1003.675,0,287.937198586,14.05,294.4043,4.9392,4.89918332738,1.80078
2018-06-01T23:52:44Z,12.86104,13.20962,0.0009633678,96.77246,0,1156,2.6852,18.99781,5.4488,43690,0.06743574,1005.476,4.816839e-06,4.626,1003.675,0,285.75285651,13.58,262.1687,4.2336,4.10022721893,1.80078
2018-06-02T00:07:42Z,12.87302,12.36931,0.0,96.91876,0,1156,1.2152,18.55952,3.5868,43690,0.0,1005.707,0.0,1.862,1003.906,0.0,276.177687181,12.47,270.0337,1.9502,1.9974499994,1.80078
2018-06-02T00:22:40Z,12.88413,12.60662,0.0,97.08867,0,1156,2.2932,18.14833,2.9204,43690,0.0,1005.707,0.0,2.842,1003.906,0.0,267.741746612,12.67,269.3865,1.2544,1.39509998929,1.80078
2018-06-02T00:37:45Z,12.88964,12.74203,0.0,97.25793,0,1156,2.6068,17.76652,3.4496,43690,0.0,1005.707,0.0,3.136,1003.906,0.0,274.424594535,12.74,272.8716,2.6264,2.59044733728,1.80078
2018-06-02T00:52:44Z,12.89515,12.50507,0.0,97.25793,0,1156,1.8424,17.48864,2.8028,43690,0.0,1005.707,0.0,2.019,1003.906,0.0,257.008127719,12.57,243.2362,2.0482,2.08576666667,1.80078
2018-06-02T01:07:45Z,12.89515,13.01285,0.0,97.5626,0,1156,2.1952,17.31241,2.3128,43690,0.0,1006.296,0.0,2.352,1004.496,0.0,245.67131139,13.01,232.853,1.0388,1.15837158757,1.80078
2018-06-02T01:22:44Z,12.88964,12.77588,0.0,97.52874,0,1156,3.4888,17.2356,3.6652,43690,0.0,1006.296,0.0,3.665,1004.496,0.0,250.157020005,12.78,274.5781,2.842,2.82298333333,1.80078
2018-06-02T01:37:46Z,12.88964,12.67433,0.0,97.6303,0,1156,5.0372,17.16105,5.2724,43690,0.0,1006.296,0.0,5.194,1004.496,0.0,276.532440454,12.78,282.5578,4.704,4.58558816568,1.80078
2018-06-02T01:52:44Z,12.89515,12.91129,0.0,97.79957,0,1156,3.136,17.03679,5.39,43690,0.0,1006.296,0.0,4.214,1004.496,0.0,289.277145221,12.91,297.3154,4.2042,4.24188333333,1.80078
2018-06-02T02:07:47Z,12.89515,13.18211,0.0,97.86727,0,1156,2.9988,16.95997,5.2136,43690,0.0,1004.996,0.0,4.449,1003.196,0.0,292.843488035,13.25,296.7145,3.9396,3.93090177515,1.80078
2018-06-02T02:22:44Z,12.89515,13.38523,0.0,98.00269,0,1156,3.9984,16.98482,4.4688,43690,0.0,1004.996,0.0,4.136,1003.196,0.0,292.016293732,13.45,284.9373,3.2732,3.32453333333,1.80078
2018-06-02T02:37:47Z,12.88964,13.52064,0.0,98.07039,0,1156,3.0772,17.08649,4.2336,43690,0.0,1004.996,0.0,3.94,1003.196,0.0,288.711553009,13.55,289.1915,3.3124,3.28862485207,1.80078
2018-06-02T02:52:44Z,12.88964,12.84359,0.0,98.00269,0,1156,4.0768,17.13619,4.7628,43690,0.0,1004.996,0.0,4.763,1003.196,0.0,288.77588342,12.98,282.5578,3.6162,3.66625,1.80078
2018-06-02T03:07:47Z,12.89515,12.70818,0.0,98.07039,0,1156,3.7828,17.01194,5.0372,43690,0.0,1005.159,0.0,4.802,1003.358,0.0,285.85118973,12.74,292.0998,4.0572,3.98761420118,1.80078
2018-06-02T03:22:44Z,12.88964,12.57277,0.0,98.17194,0,1156,3.2732,16.88542,5.9584,43690,0.0,1005.159,0.0,5.958,1003.358,0.0,281.55838574,12.61,295.3686,4.5864,4.58581666667,1.80078
2018-06-02T03:37:48Z,12.88964,12.94515,0.0,98.20579,0,1156,3.1556,16.83571,5.2724,43690,0.0,1005.159,0.0,4.175,1003.358,0.0,284.172119829,13.08,304.55,3.4692,3.50283313609,1.80078
2018-06-02T03:52:45Z,12.89515,12.87744,0.0,98.20579,0,1156,3.2536,16.81086,4.9,43690,0.0,1005.159,0.0,4.43,1003.358,0.0,285.518598696,12.98,297.8442,3.5574,3.55716666667,1.80078
2018-06-02T04:07:48Z,12.89515,11.96343,0.0,98.17194,0,1156,2.9008,16.6866,4.7236,43690,0.0,1004.753,0.0,4.724,1002.952,0.0,284.864309237,12.13,295.8252,3.9788,3.82165207101,1.80078
2018-06-02T04:22:45Z,12.90101,12.30195,0.0,98.23965,0,1156,3.6652,16.48779,5.6644,43690,0.0,1004.753,0.0,5.272,1002.952,0.0,289.371281671,12.4,269.5547,3.332,3.3796,1.80078
2018-06-02T04:37:48Z,12.90243,12.03453,0.0,98.24606,0,1156,3.3124,16.36353,5.6448,43690,0.0,1004.753,0.0,3.763,1002.952,0.0,293.581912368,12.1,279.6918,3.2732,3.32562130178,1.80078
2018-06-02T04:52:50Z,12.90268,11.93821,0.0,98.28986,0,1156,5.0568,16.24153,5.194,43690,0.0,1004.753,0.0,5.194,1002.952,0.0,284.167600579,12.18,281.8596,3.9788,3.94980591716,1.80078
2018-06-02T05:07:47Z,12.90906,11.97416,0.0,98.32766,0,1156,3.724,16.14212,4.9588,43690,0.0,1003.882,0.0,4.606,1002.081,0.0,288.264656288,12.14,293.6025,4.1552,4.16243333333,1.80078
2018-06-02T05:22:49Z,12.90984,11.8086,0.0,98.33475,0,1156,3.1752,16.06757,4.2728,43690,0.0,1003.882,0.0,3.489,1002.081,0.0,285.438043699,12.08,283.1174,3.6456,3.60500828402,1.80078
2018-06-02T05:37:51Z,12.91046,11.91204,0.0,98.40599,0,1156,2.9204,15.99527,3.5672,43690,0.0,1003.882,0.0,3.332,1002.081,0.0,283.043999878,12.01,283.5122,2.9988,2.93976804734,1.80078
2018-06-02T05:52:47Z,12.91044,11.98101,0.0,98.47609,0,1156,3.7044,15.99527,3.8416,43690,0.0,1003.882,0.0,3.842,1002.081,0.0,286.541652696,12.15,280.8021,3.3124,3.31683333333,1.80078
2018-06-02T06:07:49Z,12.91048,12.18414,0.0,98.47597,0,1156,2.548,15.97042,3.8416,43690,0.0,1003.536,0.0,3.391,1001.735,0.0,287.051815622,12.18,292.8475,3.136,3.15629585799,1.80078
2018-06-02T06:22:51Z,12.91607,12.28493,0.0,98.50832,0,1156,1.666,15.97042,3.528,43690,0.0,1003.536,0.0,3.332,1001.735,0.0,290.799351183,12.29,289.0923,2.7832,2.75061065089,1.80078
2018-06-02T06:37:47Z,12.91055,12.14919,0.0,98.54165,0,1156,3.332,15.99527,4.0572,43690,0.0,1003.536,0.0,3.802,1001.735,0.0,296.583457412,12.22,288.6098,2.6068,2.6369,1.80078
2018-06-02T06:52:49Z,12.91053,11.98045,0.0,98.50889,0,1156,2.94,15.97042,3.9788,43690,0.0,1003.536,0.0,3.469,1001.735,0.0,293.51138746,12.05,281.9772,2.9988,2.95635266272,1.80078
2018-06-02T07:07:51Z,12.91055,11.67622,0.0,98.47604,0,1156,2.7832,15.92071,3.2928,43690,0.0,1003.051,0.0,2.94,1001.25,0.0,284.665230754,11.78,275.5605,2.6264,2.63996923077,1.80078
2018-06-02T07:22:48Z,12.91605,11.57467,0.0,98.50999,0,1156,2.8224,15.82357,3.6848,43690,0.0,1003.051,0.0,3.685,1001.25,0.0,287.663880058,11.57,292.3671,2.7244,2.67726666667,1.80078